Time,TemperatureF,DewpointF,PressureIn,WindDirection,WindDirectionDegrees,WindSpeedMPH,WindSpeedGustMPH,Humidity,HourlyPrecipIn,Conditions,Clouds,dailyrainin,SoftwareType,DateUTC
2013-04-17 00:00:00,48.0,34.8,30.00,East,90,0.0,-999.0,60,-99.99,,,0.00,Acu-Link.com,2013-04-17 07:00:00,
2013-04-17 00:15:00,49.3,34.3,30.00,East,90,0.0,-999.0,56,-99.99,,,0.00,Acu-Link.com,2013-04-17 07:15:00,
2013-04-17 00:30:00,49.3,34.3,30.00,NW,315,0.0,-999.0,56,-99.99,,,0.00,Acu-Link.com,2013-04-17 07:30:00,
2013-04-17 01:01:00,50.2,33.3,30.01,South,180,1.1,-999.0,52,-99.99,,,0.00,Acu-Link.com,2013-04-17 08:01:00,
2013-04-17 01:16:00,51.1,32.6,30.01,West,270,0.0,-999.0,49,-99.99,,,0.00,Acu-Link.com,2013-04-17 08:16:00,
2013-04-17 01:31:00,53.4,29.7,30.01,West,270,3.2,-999.0,40,-99.99,,,0.00,Acu-Link.com,2013-04-17 08:31:00,
2013-04-17 01:47:00,53.6,29.9,30.02,East,90,0.0,-999.0,40,-99.99,,,0.00,Acu-Link.com,2013-04-17 08:47:00,
2013-04-17 02:02:00,54.5,28.8,30.01,NNW,337,0.0,-999.0,37,-99.99,,,0.00,Acu-Link.com,2013-04-17 09:02:00,
2013-04-17 02:17:00,55.0,30.5,30.01,West,270,2.2,-999.0,39,-99.99,,,0.00,Acu-Link.com,2013-04-17 09:17:00,
2013-04-17 02:33:00,54.7,31.5,30.01,SSW,202,0.0,-999.0,41,-99.99,,,0.00,Acu-Link.com,2013-04-17 09:33:00,
2013-04-17 02:48:00,54.9,32.2,30.02,WSW,247,2.2,-999.0,42,-99.99,,,0.00,Acu-Link.com,2013-04-17 09:48:00,
2013-04-17 03:03:00,54.5,31.9,30.01,North,0,2.7,-999.0,42,-99.99,,,0.00,Acu-Link.com,2013-04-17 10:03:00,
2013-04-17 03:18:00,54.3,31.7,30.01,ENE,67,0.0,-999.0,42,-99.99,,,0.00,Acu-Link.com,2013-04-17 10:18:00,
2013-04-17 03:34:00,54.9,31.6,30.01,SE,135,0.0,-999.0,41,-99.99,,,0.00,Acu-Link.com,2013-04-17 10:34:00,
2013-04-17 03:49:00,55.0,30.5,30.02,ESE,112,3.2,-999.0,39,-99.99,,,0.00,Acu-Link.com,2013-04-17 10:49:00,
2013-04-17 04:04:00,54.7,30.2,30.02,South,180,4.7,-999.0,39,-99.99,,,0.00,Acu-Link.com,2013-04-17 11:04:00,
2013-04-17 04:19:00,54.9,30.4,30.02,North,0,2.7,-999.0,39,-99.99,,,0.00,Acu-Link.com,2013-04-17 11:19:00,
2013-04-17 04:35:00,54.5,30.1,30.02,South,180,2.2,-999.0,39,-99.99,,,0.00,Acu-Link.com,2013-04-17 11:35:00,
2013-04-17 04:50:00,54.5,30.7,30.02,SW,225,0.0,-999.0,40,-99.99,,,0.00,Acu-Link.com,2013-04-17 11:50:00,
2013-04-17 05:05:00,54.1,30.3,30.02,NNW,337,0.0,-999.0,40,-99.99,,,0.00,Acu-Link.com,2013-04-17 12:05:00,
2013-04-17 05:21:00,54.5,30.7,30.03,SE,135,0.0,-999.0,40,-99.99,,,0.00,Acu-Link.com,2013-04-17 12:21:00,
2013-04-17 05:51:00,54.1,30.9,30.04,SW,225,0.0,-999.0,41,-99.99,,,0.00,Acu-Link.com,2013-04-17 12:51:00,
2013-04-17 06:06:00,53.6,31.1,30.04,NE,45,2.2,-999.0,42,-99.99,,,0.00,Acu-Link.com,2013-04-17 13:06:00,
2013-04-17 06:22:00,54.0,30.8,30.05,NE,45,3.7,-999.0,41,-99.99,,,0.00,Acu-Link.com,2013-04-17 13:22:00,
2013-04-17 06:37:00,53.8,31.3,30.05,WSW,247,0.0,-999.0,42,-99.99,,,0.00,Acu-Link.com,2013-04-17 13:37:00,
2013-04-17 06:52:00,53.6,31.7,30.06,NNE,22,0.0,-999.0,43,-99.99,,,0.00,Acu-Link.com,2013-04-17 13:52:00,
2013-04-17 07:08:00,54.1,32.1,30.06,NNE,22,2.7,-999.0,43,-99.99,,,0.00,Acu-Link.com,2013-04-17 14:08:00,
2013-04-17 07:23:00,54.3,31.7,30.07,ESE,112,2.2,-999.0,42,-99.99,,,0.00,Acu-Link.com,2013-04-17 14:23:00,
2013-04-17 07:38:00,54.9,31.6,30.08,West,270,0.0,-999.0,41,-99.99,,,0.00,Acu-Link.com,2013-04-17 14:38:00,
2013-04-17 07:54:00,58.5,31.6,30.09,East,90,0.0,-999.0,36,-99.99,,,0.00,Acu-Link.com,2013-04-17 14:54:00,
2013-04-17 08:09:00,61.0,30.2,30.09,NNE,22,2.7,-999.0,31,-99.99,,,0.00,Acu-Link.com,2013-04-17 15:09:00,
2013-04-17 08:24:00,63.1,30.3,30.10,West,270,2.7,-999.0,29,-99.99,,,0.00,Acu-Link.com,2013-04-17 15:24:00,
2013-04-17 08:39:00,64.2,29.5,30.10,ESE,112,3.2,-999.0,27,-99.99,,,0.00,Acu-Link.com,2013-04-17 15:39:00,
2013-04-17 08:55:00,65.7,31.7,30.10,NNE,22,1.1,-999.0,28,-99.99,,,0.00,Acu-Link.com,2013-04-17 15:55:00,
2013-04-17 09:10:00,63.1,30.3,30.10,SE,135,0.0,-999.0,29,-99.99,,,0.00,Acu-Link.com,2013-04-17 16:10:00,
2013-04-17 09:25:00,61.9,30.1,30.10,NW,315,3.7,-999.0,30,-99.99,,,0.00,Acu-Link.com,2013-04-17 16:25:00,
2013-04-17 09:41:00,61.3,30.4,30.10,NE,45,2.7,-999.0,31,-99.99,,,0.00,Acu-Link.com,2013-04-17 16:41:00,
2013-04-17 10:11:00,64.2,32.1,30.11,NE,45,2.2,-999.0,30,-99.99,,,0.00,Acu-Link.com,2013-04-17 17:11:00,
2013-04-17 10:26:00,64.2,32.1,30.11,SW,225,2.7,-999.0,30,-99.99,,,0.00,Acu-Link.com,2013-04-17 17:26:00,
2013-04-17 10:42:00,65.1,32.1,30.11,WNW,292,5.8,-999.0,29,-99.99,,,0.00,Acu-Link.com,2013-04-17 17:42:00,
2013-04-17 10:57:00,66.4,32.3,30.12,North,0,3.7,-999.0,28,-99.99,,,0.00,Acu-Link.com,2013-04-17 17:57:00,
2013-04-17 11:12:00,66.7,30.7,30.12,WSW,247,1.7,-999.0,26,-99.99,,,0.00,Acu-Link.com,2013-04-17 18:12:00,
2013-04-17 11:27:00,66.4,29.5,30.11,South,180,2.7,-999.0,25,-99.99,,,0.00,Acu-Link.com,2013-04-17 18:27:00,
2013-04-17 11:43:00,67.6,29.5,30.11,North,0,2.7,-999.0,24,-99.99,,,0.00,Acu-Link.com,2013-04-17 18:43:00,
2013-04-17 11:58:00,68.7,27.2,30.10,ESE,112,5.8,-999.0,21,-99.99,,,0.00,Acu-Link.com,2013-04-17 18:58:00,
2013-04-17 12:13:00,68.4,28.1,30.11,NNE,22,2.2,-999.0,22,-99.99,,,0.00,Acu-Link.com,2013-04-17 19:13:00,
2013-04-17 12:28:00,69.1,27.5,30.10,SSW,202,2.2,-999.0,21,-99.99,,,0.00,Acu-Link.com,2013-04-17 19:28:00,
2013-04-17 12:44:00,69.1,27.5,30.09,SW,225,2.7,-999.0,21,-99.99,,,0.00,Acu-Link.com,2013-04-17 19:44:00,
2013-04-17 12:59:00,70.0,28.3,30.09,NNE,22,3.2,-999.0,21,-99.99,,,0.00,Acu-Link.com,2013-04-17 19:59:00,
2013-04-17 13:14:00,68.9,34.4,30.08,ENE,67,1.7,-999.0,28,-99.99,,,0.00,Acu-Link.com,2013-04-17 20:14:00,
2013-04-17 13:29:00,68.9,36.2,30.08,ENE,67,4.7,-999.0,30,-99.99,,,0.00,Acu-Link.com,2013-04-17 20:29:00,
2013-04-17 13:45:00,68.4,36.6,30.07,NW,315,5.8,-999.0,31,-99.99,,,0.00,Acu-Link.com,2013-04-17 20:45:00,
2013-04-17 14:00:00,68.4,36.6,30.07,NW,315,4.2,-999.0,31,-99.99,,,0.00,Acu-Link.com,2013-04-17 21:00:00,
2013-04-17 14:15:00,69.1,35.5,30.07,WNW,292,5.8,-999.0,29,-99.99,,,0.00,Acu-Link.com,2013-04-17 21:15:00,
2013-04-17 14:30:00,67.8,35.2,30.07,ENE,67,5.3,-999.0,30,-99.99,,,0.00,Acu-Link.com,2013-04-17 21:30:00,
2013-04-17 14:46:00,68.2,35.6,30.05,North,0,2.2,-999.0,30,-99.99,,,0.00,Acu-Link.com,2013-04-17 21:46:00,
2013-04-17 15:01:00,69.3,36.5,30.05,West,270,3.2,-999.0,30,-99.99,,,0.00,Acu-Link.com,2013-04-17 22:01:00,
2013-04-17 15:16:00,67.8,35.2,30.05,East,90,0.0,-999.0,30,-99.99,,,0.00,Acu-Link.com,2013-04-17 22:16:00,
2013-04-17 15:46:00,67.8,38.4,30.03,NW,315,7.3,-999.0,34,-99.99,,,0.00,Acu-Link.com,2013-04-17 22:46:00,
2013-04-17 16:01:00,69.3,38.2,30.02,SSW,202,1.7,-999.0,32,-99.99,,,0.00,Acu-Link.com,2013-04-17 23:01:00,
2013-04-17 16:17:00,68.4,37.4,30.02,West,270,5.8,-999.0,32,-99.99,,,0.00,Acu-Link.com,2013-04-17 23:17:00,
2013-04-17 16:32:00,68.7,36.8,30.02,SW,225,2.2,-999.0,31,-99.99,,,0.00,Acu-Link.com,2013-04-17 23:32:00,
2013-04-17 16:47:00,68.4,36.6,30.02,West,270,6.8,-999.0,31,-99.99,,,0.00,Acu-Link.com,2013-04-17 23:47:00,
2013-04-17 17:02:00,68.0,37.0,30.01,West,270,7.3,-999.0,32,-99.99,,,0.00,Acu-Link.com,2013-04-18 00:02:00,
2013-04-17 17:18:00,67.8,36.9,30.01,East,90,2.2,-999.0,32,-99.99,,,0.00,Acu-Link.com,2013-04-18 00:18:00,
2013-04-17 17:33:00,68.2,38.0,30.01,West,270,6.8,-999.0,33,-99.99,,,0.00,Acu-Link.com,2013-04-18 00:33:00,
2013-04-17 17:48:00,68.0,38.6,30.01,NE,45,2.7,-999.0,34,-99.99,,,0.00,Acu-Link.com,2013-04-18 00:48:00,
2013-04-17 18:03:00,70.0,38.8,30.01,NNE,22,2.2,-999.0,32,-99.99,,,0.00,Acu-Link.com,2013-04-18 01:03:00,
2013-04-17 18:18:00,68.7,36.8,30.01,WSW,247,3.2,-999.0,31,-99.99,,,0.00,Acu-Link.com,2013-04-18 01:18:00,
2013-04-17 18:33:00,67.5,36.6,30.01,WNW,292,6.8,-999.0,32,-99.99,,,0.00,Acu-Link.com,2013-04-18 01:33:00,
2013-04-17 18:49:00,65.3,36.2,30.01,WSW,247,5.3,-999.0,34,-99.99,,,0.00,Acu-Link.com,2013-04-18 01:49:00,
2013-04-17 19:04:00,63.7,36.2,30.01,WNW,292,1.1,-999.0,36,-99.99,,,0.00,Acu-Link.com,2013-04-18 02:04:00,
2013-04-17 19:19:00,62.2,38.2,30.01,NW,315,2.7,-999.0,41,-99.99,,,0.00,Acu-Link.com,2013-04-18 02:19:00,
2013-04-17 19:34:00,60.8,38.8,30.01,NE,45,2.7,-999.0,44,-99.99,,,0.00,Acu-Link.com,2013-04-18 02:34:00,
2013-04-17 19:50:00,59.5,38.7,30.02,West,270,2.2,-999.0,46,-99.99,,,0.00,Acu-Link.com,2013-04-18 02:50:00,
2013-04-17 20:05:00,58.8,39.7,30.02,NNW,337,2.7,-999.0,49,-99.99,,,0.00,Acu-Link.com,2013-04-18 03:05:00,
2013-04-17 20:20:00,57.4,40.4,30.02,North,0,0.0,-999.0,53,-99.99,,,0.00,Acu-Link.com,2013-04-18 03:20:00,
2013-04-17 20:35:00,55.9,42.2,30.03,NNW,337,3.2,-999.0,60,-99.99,,,0.00,Acu-Link.com,2013-04-18 03:35:00,
2013-04-17 20:51:00,55.8,41.7,30.03,West,270,3.7,-999.0,59,-99.99,,,0.00,Acu-Link.com,2013-04-18 03:51:00,
2013-04-17 21:21:00,54.9,41.3,30.04,NW,315,0.0,-999.0,60,-99.99,,,0.00,Acu-Link.com,2013-04-18 04:21:00,
2013-04-17 21:37:00,54.3,41.6,30.05,NNW,337,1.7,-999.0,62,-99.99,,,0.00,Acu-Link.com,2013-04-18 04:37:00,
2013-04-17 21:52:00,54.0,42.1,30.05,NE,45,0.0,-999.0,64,-99.99,,,0.00,Acu-Link.com,2013-04-18 04:52:00,
2013-04-17 22:07:00,53.4,41.9,30.06,NW,315,0.0,-999.0,65,-99.99,,,0.00,Acu-Link.com,2013-04-18 05:07:00,
2013-04-17 22:22:00,52.9,41.9,30.05,NW,315,0.0,-999.0,66,-99.99,,,0.00,Acu-Link.com,2013-04-18 05:22:00,
2013-04-17 22:37:00,52.0,41.8,30.05,East,90,0.0,-999.0,68,-99.99,,,0.00,Acu-Link.com,2013-04-18 05:37:00,
2013-04-17 22:55:00,50.9,41.1,30.05,NW,315,0.0,-999.0,69,-99.99,,,0.00,Acu-Link.com,2013-04-18 05:55:00,
2013-04-17 23:10:00,50.0,42.0,30.05,West,270,0.0,-999.0,74,-99.99,,,0.00,Acu-Link.com,2013-04-18 06:10:00,
2013-04-17 23:25:00,49.8,42.9,30.04,North,0,0.0,-999.0,77,-99.99,,,0.00,Acu-Link.com,2013-04-18 06:25:00,
2013-04-17 23:40:00,49.3,42.7,30.05,East,90,0.0,-999.0,78,-99.99,,,0.00,Acu-Link.com,2013-04-18 06:40:00,